{"data":{"norad_id":68464,"intl_designator":"2026-067BA","name":"FGN-100-D3","alt_names":[],"object_type":"PAYLOAD","status":"ACTIVE","operator":null,"country":"TURK","launch_date":"2026-03-30","launch_site_code":"AFWTR","launch_vehicle":null,"mission":null,"orbit_class":"UNKNOWN","rcs_meters":null,"size_class":null,"mass_kg":null,"dimensions":null,"purposes":[],"wikipedia_slug":null,"has_3d_model":false,"image_url":null,"decayed_at":null,"tle_current":{"epoch":"2026-09-19T16:41:04.599168Z","epoch_age_seconds":138415,"freshness":"FRESH","line1":"1 68464U 26067BA  26262.69519212  .00003330  00000+0  16521-3 0  9998","line2":"2 68464  97.4625 219.6884 0004779 106.4305 253.7455 15.18397230 26274","mean_motion":15.1839723,"eccentricity":0.0004779,"inclination_deg":97.4625,"raan_deg":219.6884,"arg_perigee_deg":106.4305,"mean_anomaly_deg":253.7455,"bstar":0.00016521,"rev_number":2627,"period_min":94.83684318892,"perigee_km":507.39192732568,"apogee_km":513.97626252821,"semimajor_km":6888.8210949269,"source":"CELESTRAK","updated_at":"2026-09-20T09:00:24.238332Z"}}}